Tracking 29892 objects as of 21-Nov-2024
HD Live streaming from Space Station
objects crossing your sky now

COSMOS 1275 DEB

Track COSMOS 1275 DEB now!
10-day predictions


NORAD ID: 42104
Int'l Code: 1981-053PQ
Perigee: 935.6 km
Apogee: 996.8 km
Inclination: 82.9 °
Period: 104.2 minutes
Semi major axis: 7337 km
RCS: Unknown
Launch date: June 4, 1981
Source: Commonwealth of Independent States (former USSR) (CIS)
Launch site: PLESETSK MISSILE AND SPACE COMPLEX (PKMTR)

Note: This is SATELLITE DEBRIS
Your satellite tracking list
Your tracking list is empty




NASA's NSSDC Master Catalog

Two Line Element Set (TLE):
1 42104U 81053PQ  24323.26461535  .00000559  00000-0  50923-3 0  9995
2 42104  82.8758 147.6420 0041650 225.0711 134.7067 13.81363903554547
Source of the keplerian elements: AFSPC